Location: Guayaquil
(2.1667°S, 79.9000°W)
Time: 02:10:34
(UTC-05:00)

Hubble Space Telescope - Visible Passes

Search period start: 18 February 2018 00:00
Search period end: 28 February 2018 00:00
Orbit: 537 x 541 km, 28.5° (Epoch: 17 February)

Date Brightness Start Highest point End Pass type
(mag) Time Alt. Az. Time Alt. Az. Time Alt. Az.
25 Feb 3.4 20:11:28 10° S 20:11:31 10° S 20:11:31 10° S visible
26 Feb 3.0 20:00:05 10° S 20:01:56 15° SSE 20:01:56 15° SSE visible
27 Feb 2.5 19:49:12 10° SSW 19:52:17 20° SSE 19:52:24 20° SSE visible
